Total_Precipitation_Accumulation
1.14 1.15 1.14 1.10 0.99 0.98 1.02 1.01 1.00 0.99 1.03 1.01 0.93 0.86 0.93 0.94 0.90 0.96 1.03 1.09 1.16 1.31 1.45 1.57 1.73 1.99 2.29 2.30 2.24 2.11 1.98 1.85 1.63 1.48 1.27 1.20 1.51 1.62 1.52 1.41 1.37 1.32 1.08
1.06 1.08 1.07 0.97 0.91 0.87 0.85 0.81 0.71 0.68 0.70 0.79 0.88 0.83 0.81 0.85 0.87 0.93 0.96 1.00 1.02 1.11 1.22 1.35 1.53 1.81 2.16 2.37 2.44 2.32 2.16 2.01 1.88 1.73 1.40 1.17 1.29 1.63 1.77 1.70 1.47 1.29 1.15
1.13 0.97 0.88 0.84 0.80 0.79 0.71 0.66 0.63 0.55 0.54 0.58 0.67 0.68 0.78 0.85 0.87 0.89 0.91 0.95 0.97 1.05 1.20 1.25 1.31 1.50 1.70 1.91 2.09 2.21 2.20 2.17 2.15 1.91 1.60 1.34 1.27 1.40 1.66 1.68 1.60 1.55 1.32
1.21 1.11 0.96 0.86 0.80 0.76 0.70 0.67 0.62 0.59 0.59 0.64 0.76 0.79 0.75 0.73 0.78 0.88 0.92 0.87 0.85 0.89 0.98 1.08 1.17 1.22 1.37 1.51 1.62 1.82 2.03 2.27 2.35 2.20 1.92 1.60 1.48 1.37 1.47 1.63 1.70 1.66 1.57
1.18 1.19 1.04 0.96 0.89 0.76 0.70 0.69 0.66 0.70 0.66 0.68 0.77 0.87 0.93 0.87 0.85 0.93 0.89 0.87 0.86 0.85 0.89 0.90 0.97 0.99 1.05 1.23 1.28 1.50 1.83 2.10 2.21 2.28 2.15 1.85 1.58 1.40 1.20 1.30 1.56 1.78 1.80
0.84 0.93 0.90 0.80 0.70 0.66 0.65 0.62 0.59 0.58 0.54 0.53 0.57 0.64 0.73 0.77 0.98 0.93 0.76 0.72 0.77 0.84 0.88 0.88 0.89 0.84 0.82 0.89 1.02 1.15 1.45 1.67 1.81 1.89 1.91 1.75 1.53 1.40 1.35 1.31 1.39 1.53 1.59
0.56 0.66 0.66 0.61 0.53 0.50 0.53 0.52 0.48 0.43 0.44 0.42 0.42 0.42 0.48 0.63 0.72 0.56 0.54 0.59 0.73 0.84 0.91 0.94 0.90 0.84 0.89 0.90 0.92 0.93 1.00 1.18 1.39 1.60 1.63 1.53 1.59 1.50 1.41 1.31 1.32 1.34 1.33
0.31 0.37 0.39 0.39 0.38 0.38 0.39 0.39 0.38 0.38 0.37 0.36 0.41 0.47 0.49 0.51 0.58 0.48 0.46 0.56 0.75 0.88 0.89 0.84 0.91 0.92 0.94 1.01 0.94 1.01 0.97 0.95 1.04 1.09 1.22 1.43 1.57 1.74 1.71 1.61 1.61 1.55 1.46
0.14 0.16 0.19 0.21 0.24 0.28 0.30 0.34 0.43 0.44 0.42 0.41 0.51 0.58 0.52 0.46 0.51 0.52 0.56 0.70 0.82 0.90 0.87 0.87 0.94 0.98 1.11 1.16 1.07 1.12 1.08 1.05 1.02 1.12 1.22 1.33 1.41 1.53 1.68 1.72 1.68 1.64 1.50
0.08 0.09 0.11 0.13 0.15 0.20 0.25 0.28 0.29 0.30 0.35 0.42 0.44 0.41 0.42 0.48 0.55 0.53 0.65 0.83 0.95 1.05 1.00 0.99 1.18 1.13 1.11 1.06 1.04 1.18 1.15 1.01 0.94 0.98 1.03 1.12 1.16 1.25 1.38 1.43 1.55 1.62 1.53
0.08 0.11 0.13 0.13 0.13 0.14 0.12 0.11 0.13 0.18 0.21 0.22 0.24 0.29 0.36 0.50 0.55 0.58 0.78 0.87 0.93 1.08 1.10 1.06 1.00 1.13 1.07 0.99 0.99 1.04 1.18 1.07 1.00 1.04 1.04 1.04 1.06 1.10 1.14 1.20 1.32 1.45 1.50
0.07 0.09 0.10 0.09 0.08 0.08 0.08 0.08 0.08 0.11 0.14 0.16 0.19 0.25 0.31 0.37 0.44 0.50 0.63 0.76 0.84 1.01 1.09 0.99 0.89 1.12 1.08 0.98 0.90 0.93 1.07 1.14 1.14 1.18 1.16 1.07 0.99 0.96 0.95 1.02 1.11 1.22 1.31
0.07 0.09 0.10 0.09 0.09 0.07 0.06 0.07 0.08 0.09 0.10 0.12 0.16 0.24 0.33 0.38 0.39 0.46 0.52 0.61 0.72 0.90 0.95 0.96 0.98 1.01 0.93 0.89 0.98 1.01 1.04 1.06 1.15 1.21 1.09 0.94 0.87 0.86 0.92 1.04 1.15 1.23 1.31
0.07 0.08 0.09 0.10 0.11 0.08 0.08 0.08 0.08 0.07 0.09 0.13 0.20 0.26 0.31 0.36 0.39 0.49 0.58 0.60 0.68 0.76 0.77 0.80 0.83 0.80 0.80 0.84 0.90 1.00 1.05 1.10 1.12 1.06 0.95 0.82 0.83 0.88 0.91 0.94 1.08 1.20 1.34
0.06 0.08 0.09 0.11 0.11 0.08 0.07 0.07 0.08 0.08 0.11 0.16 0.20 0.23 0.25 0.27 0.34 0.45 0.60 0.69 0.78 0.86 0.87 0.78 0.79 0.79 0.77 0.77 0.82 0.86 0.90 0.91 0.94 0.92 0.89 0.87 0.86 0.89 0.90 0.89 0.98 1.05 1.06
0.05 0.07 0.08 0.08 0.08 0.08 0.09 0.07 0.07 0.07 0.08 0.10 0.11 0.14 0.20 0.24 0.23 0.26 0.39 0.55 0.74 0.99 1.22 1.17 1.15 1.07 0.97 0.87 0.79 0.74 0.73 0.75 0.79 0.84 0.85 0.83 0.83 0.88 0.93 0.94 0.98 1.04 1.02
0.05 0.06 0.06 0.06 0.06 0.06 0.09 0.13 0.14 0.11 0.08 0.06 0.07 0.11 0.18 0.23 0.22 0.27 0.36 0.42 0.53 0.85 1.24 1.23 1.20 1.05 0.92 0.83 0.73 0.63 0.59 0.61 0.69 0.69 0.72 0.75 0.76 0.81 0.88 0.91 0.92 0.97 1.00
0.05 0.05 0.06 0.08 0.08 0.08 0.08 0.13 0.24 0.30 0.25 0.13 0.10 0.10 0.16 0.24 0.29 0.38 0.48 0.58 0.64 0.77 0.91 0.92 0.85 0.79 0.72 0.60 0.55 0.53 0.50 0.54 0.63 0.65 0.65 0.66 0.68 0.74 0.77 0.84 0.87 0.87 0.93
0.05 0.06 0.09 0.12 0.11 0.09 0.10 0.17 0.23 0.17 0.16 0.18 0.16 0.13 0.14 0.18 0.23 0.29 0.41 0.51 0.53 0.57 0.57 0.53 0.48 0.47 0.48 0.45 0.43 0.42 0.43 0.47 0.54 0.61 0.63 0.62 0.62 0.66 0.70 0.75 0.82 0.90 0.90
0.03 0.06 0.09 0.15 0.15 0.10 0.11 0.15 0.14 0.13 0.16 0.18 0.18 0.18 0.19 0.19 0.20 0.23 0.28 0.33 0.33 0.34 0.33 0.33 0.32 0.32 0.34 0.35 0.37 0.39 0.39 0.42 0.47 0.54 0.58 0.62 0.62 0.61 0.64 0.71 0.76 0.79 0.79
0.04 0.05 0.07 0.10 0.14 0.12 0.12 0.14 0.13 0.14 0.16 0.17 0.16 0.17 0.20 0.23 0.24 0.24 0.23 0.23 0.25 0.27 0.29 0.29 0.28 0.30 0.33 0.34 0.37 0.41 0.44 0.47 0.48 0.56 0.57 0.59 0.63 0.64 0.65 0.68 0.72 0.72 0.75
0.04 0.05 0.06 0.09 0.11 0.11 0.12 0.14 0.16 0.14 0.13 0.15 0.16 0.17 0.19 0.24 0.24 0.23 0.21 0.21 0.22 0.24 0.30 0.34 0.34 0.35 0.35 0.37 0.41 0.45 0.47 0.49 0.52 0.56 0.62 0.64 0.64 0.64 0.66 0.68 0.72 0.74 0.75
0.05 0.06 0.06 0.08 0.09 0.09 0.09 0.10 0.15 0.16 0.15 0.16 0.17 0.17 0.19 0.21 0.23 0.26 0.26 0.26 0.29 0.32 0.31 0.33 0.37 0.38 0.37 0.38 0.42 0.49 0.54 0.55 0.58 0.63 0.69 0.70 0.66 0.65 0.68 0.67 0.69 0.73 0.75
0.06 0.06 0.06 0.08 0.09 0.09 0.10 0.11 0.12 0.14 0.17 0.21 0.21 0.20 0.21 0.24 0.26 0.25 0.25 0.32 0.34 0.33 0.33 0.33 0.35 0.39 0.40 0.42 0.44 0.47 0.50 0.54 0.59 0.64 0.69 0.73 0.71 0.67 0.70 0.75 0.76 0.78 0.83
0.08 0.08 0.08 0.10 0.12 0.13 0.15 0.16 0.16 0.17 0.20 0.24 0.23 0.23 0.22 0.22 0.24 0.23 0.24 0.29 0.32 0.32 0.32 0.33 0.35 0.38 0.40 0.42 0.45 0.47 0.53 0.57 0.60 0.63 0.67 0.74 0.75 0.75 0.75 0.81 0.87 0.89 0.93
0.12 0.13 0.14 0.15 0.17 0.19 0.20 0.21 0.22 0.22 0.23 0.23 0.23 0.25 0.26 0.26 0.27 0.27 0.27 0.29 0.31 0.33 0.33 0.34 0.35 0.37 0.38 0.39 0.44 0.51 0.55 0.53 0.55 0.61 0.66 0.75 0.83 0.84 0.85 0.86 0.87 0.91 0.94